Time,TemperatureF,DewpointF,PressureIn,WindDirection,WindDirectionDegrees,WindSpeedMPH,WindSpeedGustMPH,Humidity,HourlyPrecipIn,Conditions,Clouds,dailyrainin,SoftwareType,DateUTC
2013-04-29 00:12:00,57.6,8.0,29.44,West,269,7.0,9.0,14,0.00,,,0.00,weatherlink.com 1.10,2013-04-29 07:12:00,
2013-04-29 00:27:00,57.5,8.0,29.44,SW,233,5.0,10.0,14,0.00,,,0.00,weatherlink.com 1.10,2013-04-29 07:27:00,
2013-04-29 00:43:00,57.5,8.0,29.44,WNW,284,6.0,9.0,14,0.00,,,0.00,weatherlink.com 1.10,2013-04-29 07:43:00,
2013-04-29 00:57:00,57.9,7.0,29.44,WSW,253,10.0,11.0,13,0.00,,,0.00,weatherlink.com 1.10,2013-04-29 07:57:00,
2013-04-29 01:12:00,58.0,9.0,29.43,West,273,6.0,15.0,14,0.00,,,0.00,weatherlink.com 1.10,2013-04-29 08:12:00,
2013-04-29 01:27:00,57.9,7.0,29.43,SW,222,8.0,14.0,13,0.00,,,0.00,weatherlink.com 1.10,2013-04-29 08:27:00,
2013-04-29 01:42:00,58.1,7.0,29.43,WSW,244,17.0,17.0,13,0.00,,,0.00,weatherlink.com 1.10,2013-04-29 08:42:00,
2013-04-29 01:57:00,58.2,7.0,29.43,SSW,203,10.0,18.0,13,0.00,,,0.00,weatherlink.com 1.10,2013-04-29 08:57:00,
2013-04-29 02:12:00,58.1,4.0,29.42,West,276,11.0,17.0,11,0.00,,,0.00,weatherlink.com 1.10,2013-04-29 09:12:00,
2013-04-29 02:27:00,57.0,5.0,29.42,SW,215,11.0,15.0,12,0.00,,,0.00,weatherlink.com 1.10,2013-04-29 09:27:00,
2013-04-29 02:42:00,57.0,6.0,29.42,WSW,253,8.0,17.0,13,0.00,,,0.00,weatherlink.com 1.10,2013-04-29 09:42:00,
2013-04-29 02:57:00,57.3,7.0,29.41,SW,226,9.0,16.0,13,0.00,,,0.00,weatherlink.com 1.10,2013-04-29 09:57:00,
2013-04-29 03:12:00,57.4,8.0,29.41,WSW,251,12.0,16.0,14,0.00,,,0.00,weatherlink.com 1.10,2013-04-29 10:12:00,
2013-04-29 03:27:00,57.4,8.0,29.41,West,278,9.0,17.0,14,0.00,,,0.00,weatherlink.com 1.10,2013-04-29 10:27:00,
2013-04-29 03:43:00,57.2,8.0,29.41,West,260,9.0,16.0,14,0.00,,,0.00,weatherlink.com 1.10,2013-04-29 10:43:00,
2013-04-29 03:58:00,57.1,8.0,29.41,SW,224,10.0,15.0,14,0.00,,,0.00,weatherlink.com 1.10,2013-04-29 10:58:00,
2013-04-29 04:13:00,56.6,8.0,29.41,SSW,210,12.0,16.0,14,0.00,,,0.00,weatherlink.com 1.10,2013-04-29 11:13:00,
2013-04-29 04:28:00,56.4,7.0,29.41,WSW,253,12.0,15.0,14,0.00,,,0.00,weatherlink.com 1.10,2013-04-29 11:28:00,
2013-04-29 04:43:00,56.1,7.0,29.41,SW,226,10.0,16.0,14,0.00,,,0.00,weatherlink.com 1.10,2013-04-29 11:43:00,
2013-04-29 04:58:00,56.1,7.0,29.42,West,267,11.0,15.0,14,0.00,,,0.00,weatherlink.com 1.10,2013-04-29 11:58:00,
2013-04-29 05:13:00,56.2,7.0,29.42,West,281,11.0,16.0,14,0.00,,,0.00,weatherlink.com 1.10,2013-04-29 12:13:00,
2013-04-29 05:28:00,56.2,7.0,29.42,West,264,11.0,14.0,14,0.00,,,0.00,weatherlink.com 1.10,2013-04-29 12:28:00,
2013-04-29 05:43:00,56.2,7.0,29.42,WSW,258,10.0,14.0,14,0.00,,,0.00,weatherlink.com 1.10,2013-04-29 12:43:00,
2013-04-29 05:58:00,56.0,7.0,29.43,West,278,8.0,11.0,14,0.00,,,0.00,weatherlink.com 1.10,2013-04-29 12:58:00,
2013-04-29 06:13:00,56.9,8.0,29.43,SW,233,5.0,9.0,14,0.00,,,0.00,weatherlink.com 1.10,2013-04-29 13:13:00,
2013-04-29 06:28:00,57.7,9.0,29.43,West,269,6.0,10.0,14,0.00,,,0.00,weatherlink.com 1.10,2013-04-29 13:28:00,
2013-04-29 06:43:00,57.6,8.0,29.43,SW,215,6.0,11.0,14,0.00,,,0.00,weatherlink.com 1.10,2013-04-29 13:43:00,
2013-04-29 06:58:00,58.0,9.0,29.43,West,266,5.0,12.0,14,0.00,,,0.00,weatherlink.com 1.10,2013-04-29 13:58:00,
2013-04-29 07:13:00,58.4,9.0,29.43,West,281,10.0,12.0,14,0.00,,,0.00,weatherlink.com 1.10,2013-04-29 14:13:00,
2013-04-29 07:28:00,58.7,11.0,29.43,NW,310,6.0,12.0,15,0.00,,,0.00,weatherlink.com 1.10,2013-04-29 14:28:00,
2013-04-29 07:43:00,59.2,11.0,29.43,West,281,7.0,8.0,15,0.00,,,0.00,weatherlink.com 1.10,2013-04-29 14:43:00,
2013-04-29 07:58:00,59.7,12.0,29.43,West,267,8.0,10.0,15,0.00,,,0.00,weatherlink.com 1.10,2013-04-29 14:58:00,
2013-04-29 08:13:00,60.3,12.0,29.43,SSW,201,4.0,9.0,15,0.00,,,0.00,weatherlink.com 1.10,2013-04-29 15:13:00,
2013-04-29 08:28:00,60.6,12.0,29.43,ENE,65,2.0,8.0,15,0.00,,,0.00,weatherlink.com 1.10,2013-04-29 15:28:00,
2013-04-29 08:43:00,61.3,13.0,29.43,West,271,2.0,8.0,15,0.00,,,0.00,weatherlink.com 1.10,2013-04-29 15:43:00,
2013-04-29 08:58:00,62.3,14.0,29.43,North,354,5.0,7.0,15,0.00,,,0.00,weatherlink.com 1.10,2013-04-29 15:58:00,
2013-04-29 09:13:00,62.5,14.0,29.43,SW,222,4.0,9.0,15,0.00,,,0.00,weatherlink.com 1.10,2013-04-29 16:13:00,
2013-04-29 09:28:00,62.6,13.0,29.43,NNW,327,1.0,9.0,14,0.00,,,0.00,weatherlink.com 1.10,2013-04-29 16:28:00,
2013-04-29 09:43:00,63.7,13.0,29.43,NNW,336,3.0,7.0,14,0.00,,,0.00,weatherlink.com 1.10,2013-04-29 16:43:00,
2013-04-29 09:58:00,64.4,14.0,29.43,WNW,302,8.0,9.0,14,0.00,,,0.00,weatherlink.com 1.10,2013-04-29 16:58:00,
2013-04-29 10:13:00,64.3,16.0,29.43,NW,308,2.0,9.0,15,0.00,,,0.00,weatherlink.com 1.10,2013-04-29 17:13:00,
2013-04-29 10:28:00,65.2,15.0,29.43,WSW,246,3.0,9.0,14,0.00,,,0.00,weatherlink.com 1.10,2013-04-29 17:28:00,
2013-04-29 10:43:00,66.0,14.0,29.43,WNW,302,5.0,9.0,13,0.00,,,0.00,weatherlink.com 1.10,2013-04-29 17:43:00,
2013-04-29 10:58:00,66.3,14.0,29.43,NW,304,4.0,9.0,13,0.00,,,0.00,weatherlink.com 1.10,2013-04-29 17:58:00,
2013-04-29 11:13:00,66.8,10.0,29.43,WSW,250,5.0,13.0,11,0.00,,,0.00,weatherlink.com 1.10,2013-04-29 18:13:00,
2013-04-29 11:28:00,67.6,11.0,29.43,East,97,4.0,13.0,11,0.00,,,0.00,weatherlink.com 1.10,2013-04-29 18:28:00,
2013-04-29 11:43:00,68.4,12.0,29.43,West,259,8.0,10.0,11,0.00,,,0.00,weatherlink.com 1.10,2013-04-29 18:43:00,
2013-04-29 11:58:00,68.2,9.0,29.42,NNW,330,5.0,13.0,10,0.00,,,0.00,weatherlink.com 1.10,2013-04-29 18:58:00,
2013-04-29 12:13:00,68.0,9.0,29.41,WNW,288,5.0,19.0,10,0.00,,,0.00,weatherlink.com 1.10,2013-04-29 19:13:00,
2013-04-29 12:28:00,67.7,11.0,29.41,West,280,13.0,15.0,11,0.00,,,0.00,weatherlink.com 1.10,2013-04-29 19:28:00,
2013-04-29 12:43:00,67.1,9.0,29.40,WNW,287,11.0,24.0,10,0.00,,,0.00,weatherlink.com 1.10,2013-04-29 19:43:00,
2013-04-29 12:58:00,67.3,11.0,29.40,ESE,113,7.0,16.0,11,0.00,,,0.00,weatherlink.com 1.10,2013-04-29 19:58:00,
2013-04-29 13:13:00,67.5,11.0,29.39,WNW,297,9.0,19.0,11,0.00,,,0.00,weatherlink.com 1.10,2013-04-29 20:13:00,
2013-04-29 13:28:00,68.9,10.0,29.38,SW,235,14.0,19.0,10,0.00,,,0.00,weatherlink.com 1.10,2013-04-29 20:28:00,
2013-04-29 13:43:00,68.3,12.0,29.38,WNW,290,8.0,16.0,11,0.00,,,0.00,weatherlink.com 1.10,2013-04-29 20:43:00,
2013-04-29 13:58:00,67.1,11.0,29.37,NNW,346,3.0,19.0,11,0.00,,,0.00,weatherlink.com 1.10,2013-04-29 20:58:00,
2013-04-29 14:13:00,69.3,10.0,29.37,WNW,293,7.0,13.0,10,0.00,,,0.00,weatherlink.com 1.10,2013-04-29 21:13:00,
2013-04-29 14:28:00,68.9,10.0,29.37,WNW,290,10.0,18.0,10,0.00,,,0.00,weatherlink.com 1.10,2013-04-29 21:28:00,
2013-04-29 14:43:00,68.3,10.0,29.37,NNE,18,11.0,22.0,10,0.00,,,0.00,weatherlink.com 1.10,2013-04-29 21:43:00,
2013-04-29 14:58:00,67.7,9.0,29.36,North,6,4.0,15.0,10,0.00,,,0.00,weatherlink.com 1.10,2013-04-29 21:58:00,
2013-04-29 15:13:00,69.4,10.0,29.36,NNW,327,5.0,15.0,10,0.00,,,0.00,weatherlink.com 1.10,2013-04-29 22:13:00,
2013-04-29 15:28:00,69.7,11.0,29.35,WNW,297,3.0,17.0,10,0.00,,,0.00,weatherlink.com 1.10,2013-04-29 22:28:00,
2013-04-29 15:43:00,68.2,9.0,29.34,West,276,8.0,17.0,10,0.00,,,0.00,weatherlink.com 1.10,2013-04-29 22:43:00,
2013-04-29 15:58:00,67.8,9.0,29.34,SW,222,14.0,18.0,10,0.00,,,0.00,weatherlink.com 1.10,2013-04-29 22:58:00,
2013-04-29 16:13:00,67.0,8.0,29.34,SW,215,10.0,21.0,10,0.00,,,0.00,weatherlink.com 1.10,2013-04-29 23:13:00,
2013-04-29 16:28:00,68.2,9.0,29.33,SW,219,13.0,15.0,10,0.00,,,0.00,weatherlink.com 1.10,2013-04-29 23:28:00,
2013-04-29 16:43:00,67.9,11.0,29.33,WSW,250,8.0,17.0,11,0.00,,,0.00,weatherlink.com 1.10,2013-04-29 23:43:00,
2013-04-29 16:58:00,68.1,11.0,29.33,West,263,8.0,15.0,11,0.00,,,0.00,weatherlink.com 1.10,2013-04-29 23:58:00,
2013-04-29 17:14:00,67.7,11.0,29.33,West,262,7.0,21.0,11,0.00,,,0.00,weatherlink.com 1.10,2013-04-30 00:14:00,
2013-04-29 17:29:00,67.8,11.0,29.33,NW,318,9.0,12.0,11,0.00,,,0.00,weatherlink.com 1.10,2013-04-30 00:29:00,
2013-04-29 17:44:00,67.4,11.0,29.33,WSW,256,7.0,12.0,11,0.00,,,0.00,weatherlink.com 1.10,2013-04-30 00:44:00,
2013-04-29 17:59:00,66.7,10.0,29.32,WSW,256,11.0,14.0,11,0.00,,,0.00,weatherlink.com 1.10,2013-04-30 00:59:00,
2013-04-29 18:14:00,66.0,10.0,29.33,West,280,4.0,13.0,11,0.00,,,0.00,weatherlink.com 1.10,2013-04-30 01:14:00,
2013-04-29 18:29:00,64.9,9.0,29.32,West,260,7.0,13.0,11,0.00,,,0.00,weatherlink.com 1.10,2013-04-30 01:29:00,
2013-04-29 18:44:00,63.6,10.0,29.32,West,277,6.0,11.0,12,0.00,,,0.00,weatherlink.com 1.10,2013-04-30 01:44:00,
2013-04-29 18:59:00,61.7,10.0,29.33,SW,229,5.0,11.0,13,0.00,,,0.00,weatherlink.com 1.10,2013-04-30 01:59:00,
2013-04-29 19:14:00,61.1,11.0,29.33,SW,229,3.0,7.0,14,0.00,,,0.00,weatherlink.com 1.10,2013-04-30 02:14:00,
2013-04-29 19:29:00,60.6,11.0,29.34,SE,137,3.0,8.0,14,0.00,,,0.00,weatherlink.com 1.10,2013-04-30 02:29:00,
2013-04-29 19:44:00,60.3,11.0,29.34,SW,219,5.0,8.0,14,0.00,,,0.00,weatherlink.com 1.10,2013-04-30 02:44:00,
2013-04-29 19:59:00,60.3,11.0,29.34,WNW,284,7.0,12.0,14,0.00,,,0.00,weatherlink.com 1.10,2013-04-30 02:59:00,
2013-04-29 20:14:00,60.4,11.0,29.35,SW,230,6.0,12.0,14,0.00,,,0.00,weatherlink.com 1.10,2013-04-30 03:14:00,
2013-04-29 20:29:00,60.2,11.0,29.35,WSW,252,10.0,11.0,14,0.00,,,0.00,weatherlink.com 1.10,2013-04-30 03:29:00,
2013-04-29 20:44:00,60.0,10.0,29.35,SW,229,7.0,11.0,14,0.00,,,0.00,weatherlink.com 1.10,2013-04-30 03:44:00,
2013-04-29 20:59:00,60.2,12.0,29.35,West,278,6.0,13.0,15,0.00,,,0.00,weatherlink.com 1.10,2013-04-30 03:59:00,
2013-04-29 21:14:00,59.9,12.0,29.35,West,260,10.0,13.0,15,0.00,,,0.00,weatherlink.com 1.10,2013-04-30 04:14:00,
2013-04-29 21:29:00,60.3,12.0,29.35,WSW,250,9.0,15.0,15,0.00,,,0.00,weatherlink.com 1.10,2013-04-30 04:29:00,
2013-04-29 21:44:00,59.9,12.0,29.34,West,278,8.0,16.0,15,0.00,,,0.00,weatherlink.com 1.10,2013-04-30 04:44:00,
2013-04-29 21:59:00,59.8,13.0,29.34,SW,229,11.0,15.0,16,0.00,,,0.00,weatherlink.com 1.10,2013-04-30 04:59:00,
2013-04-29 22:14:00,59.7,13.0,29.34,SW,231,11.0,16.0,16,0.00,,,0.00,weatherlink.com 1.10,2013-04-30 05:14:00,
2013-04-29 22:29:00,59.6,13.0,29.33,SW,219,5.0,15.0,16,0.00,,,0.00,weatherlink.com 1.10,2013-04-30 05:29:00,
2013-04-29 22:44:00,59.3,13.0,29.34,East,96,8.0,16.0,16,0.00,,,0.00,weatherlink.com 1.10,2013-04-30 05:44:00,
2013-04-29 22:59:00,57.8,17.0,29.33,SW,229,23.0,23.0,20,0.00,,,0.00,weatherlink.com 1.10,2013-04-30 05:59:00,
2013-04-29 23:14:00,57.3,17.0,29.33,SW,224,20.0,25.0,21,0.00,,,0.00,weatherlink.com 1.10,2013-04-30 06:14:00,
2013-04-29 23:29:00,57.1,17.0,29.33,SW,229,13.0,28.0,21,0.00,,,0.00,weatherlink.com 1.10,2013-04-30 06:29:00,
2013-04-29 23:44:00,57.0,18.0,29.33,WSW,253,17.0,35.0,22,0.00,,,0.00,weatherlink.com 1.10,2013-04-30 06:44:00,
2013-04-29 23:59:00,56.9,17.0,29.32,WSW,246,17.0,35.0,21,0.00,,,0.00,weatherlink.com 1.10,2013-04-30 06:59:00,